Total_Precipitation_Accumulation
1.36 1.46 1.48 1.29 1.03 0.92 0.92 0.94 0.95 0.95 0.99 1.02 0.94 0.96 1.06 1.07 1.01 1.10 1.22 1.29 1.39 1.47 1.48 1.54 1.60 1.60 1.76 1.81 1.93 2.06 2.13 2.12 1.91 1.68 1.56 1.59 1.65 1.65 1.60 1.49 1.46 1.47 1.41
1.23 1.21 1.04 0.86 0.75 0.72 0.70 0.68 0.69 0.73 0.72 0.74 0.70 0.70 0.80 0.92 0.93 1.00 1.07 1.06 1.15 1.26 1.35 1.40 1.38 1.39 1.51 1.61 1.71 1.79 1.96 2.04 1.96 1.79 1.65 1.56 1.47 1.53 1.68 1.69 1.65 1.54 1.54
0.82 0.85 0.80 0.71 0.67 0.64 0.62 0.60 0.58 0.62 0.66 0.65 0.61 0.64 0.68 0.75 0.88 0.93 0.96 0.95 0.96 0.98 1.04 1.08 1.13 1.23 1.40 1.45 1.48 1.60 1.77 1.85 1.97 1.87 1.76 1.66 1.49 1.45 1.64 1.62 1.66 1.84 1.72
0.60 0.63 0.65 0.62 0.61 0.63 0.64 0.61 0.58 0.58 0.62 0.62 0.57 0.57 0.66 0.74 0.80 0.90 0.91 0.87 0.86 0.90 0.94 0.93 0.92 0.98 1.12 1.28 1.36 1.54 1.72 1.89 1.99 1.94 1.88 1.80 1.68 1.55 1.64 1.78 1.83 1.89 1.89
0.49 0.49 0.57 0.60 0.59 0.56 0.58 0.56 0.55 0.55 0.55 0.55 0.53 0.57 0.61 0.64 0.68 0.85 0.87 0.86 0.88 0.85 0.86 0.89 0.91 0.92 0.96 1.03 1.03 1.23 1.45 1.71 1.85 1.93 1.92 1.91 1.82 1.73 1.64 1.81 1.89 2.00 2.08
0.38 0.40 0.48 0.55 0.56 0.56 0.54 0.52 0.50 0.51 0.53 0.53 0.51 0.55 0.55 0.52 0.74 0.85 0.85 0.87 0.93 0.97 0.92 0.91 0.88 0.87 0.97 0.97 0.95 0.99 1.14 1.32 1.49 1.61 1.68 1.73 1.76 1.84 1.95 1.95 1.92 1.96 2.02
0.37 0.40 0.46 0.48 0.46 0.50 0.51 0.46 0.43 0.46 0.50 0.51 0.53 0.55 0.53 0.52 0.58 0.61 0.70 0.80 0.93 0.97 0.92 1.00 1.02 0.92 0.96 1.00 1.06 1.00 0.94 0.98 1.15 1.36 1.47 1.51 1.59 1.68 1.92 1.96 1.95 1.97 1.85
0.36 0.38 0.43 0.44 0.44 0.42 0.44 0.40 0.40 0.44 0.48 0.49 0.58 0.59 0.51 0.47 0.51 0.51 0.58 0.68 0.80 0.84 0.84 0.92 1.15 1.17 1.07 1.08 1.14 1.19 1.05 0.90 0.93 1.01 1.19 1.35 1.43 1.61 1.95 2.16 2.12 1.88 1.78
0.37 0.35 0.36 0.40 0.42 0.42 0.37 0.36 0.37 0.43 0.46 0.45 0.49 0.55 0.51 0.48 0.51 0.51 0.54 0.61 0.70 0.72 0.75 0.86 1.00 1.11 1.10 1.11 1.07 1.12 1.14 1.01 0.98 1.03 1.02 1.12 1.30 1.49 1.78 2.07 2.17 2.09 1.88
0.36 0.37 0.38 0.38 0.36 0.38 0.38 0.38 0.39 0.44 0.49 0.51 0.51 0.49 0.47 0.47 0.51 0.52 0.56 0.56 0.60 0.58 0.63 0.81 1.01 0.97 0.98 1.05 1.05 1.14 1.24 1.07 0.99 1.09 1.07 1.10 1.15 1.40 1.78 1.97 2.09 2.10 1.96
0.42 0.45 0.45 0.41 0.41 0.46 0.49 0.46 0.46 0.47 0.50 0.51 0.51 0.49 0.46 0.47 0.54 0.54 0.55 0.52 0.57 0.59 0.61 0.72 0.79 0.81 0.81 0.91 0.99 1.04 1.20 1.12 1.12 1.25 1.29 1.24 1.30 1.34 1.49 1.68 1.91 2.06 1.98
0.44 0.47 0.47 0.46 0.46 0.51 0.56 0.57 0.57 0.57 0.57 0.58 0.59 0.57 0.54 0.51 0.51 0.54 0.56 0.56 0.61 0.60 0.65 0.68 0.66 0.69 0.72 0.77 0.78 0.85 1.04 1.16 1.23 1.37 1.41 1.37 1.33 1.35 1.37 1.42 1.57 1.72 1.74
0.46 0.48 0.49 0.50 0.51 0.50 0.53 0.58 0.61 0.61 0.59 0.60 0.60 0.60 0.61 0.57 0.52 0.55 0.57 0.58 0.61 0.59 0.61 0.69 0.71 0.73 0.75 0.72 0.73 0.79 0.94 1.12 1.31 1.37 1.29 1.22 1.25 1.31 1.32 1.43 1.51 1.58 1.63
0.52 0.53 0.51 0.51 0.51 0.52 0.53 0.54 0.55 0.57 0.56 0.57 0.59 0.58 0.57 0.55 0.48 0.48 0.53 0.56 0.62 0.64 0.66 0.72 0.75 0.76 0.72 0.69 0.76 0.86 0.99 1.18 1.29 1.24 1.21 1.11 1.15 1.29 1.36 1.37 1.40 1.40 1.46
0.58 0.58 0.55 0.50 0.47 0.49 0.49 0.49 0.51 0.52 0.57 0.63 0.64 0.65 0.62 0.56 0.57 0.64 0.62 0.56 0.55 0.59 0.67 0.74 0.78 0.84 0.85 0.88 0.96 1.03 1.02 1.06 1.14 1.08 1.14 1.10 1.09 1.20 1.26 1.24 1.28 1.22 1.17
0.55 0.55 0.53 0.55 0.52 0.48 0.47 0.50 0.57 0.59 0.64 0.61 0.62 0.62 0.59 0.58 0.63 0.60 0.62 0.64 0.63 0.68 0.74 0.78 0.86 0.95 1.00 1.05 1.10 1.07 1.04 1.03 1.06 1.07 1.10 1.11 1.07 1.09 1.12 1.15 1.22 1.25 1.24
0.51 0.49 0.48 0.51 0.53 0.52 0.52 0.53 0.56 0.56 0.57 0.56 0.54 0.54 0.56 0.58 0.55 0.54 0.57 0.61 0.64 0.70 0.72 0.81 1.01 1.04 1.00 1.02 1.07 1.06 0.97 0.90 0.91 0.93 0.94 0.96 0.97 1.00 1.04 1.08 1.13 1.19 1.20
0.57 0.61 0.55 0.51 0.53 0.55 0.56 0.55 0.55 0.57 0.59 0.57 0.52 0.51 0.52 0.54 0.54 0.53 0.56 0.58 0.55 0.56 0.58 0.69 0.87 0.91 0.94 0.97 0.95 0.90 0.85 0.82 0.83 0.83 0.81 0.82 0.85 0.91 0.95 1.00 1.02 1.02 1.08
0.51 0.57 0.58 0.57 0.56 0.54 0.53 0.52 0.51 0.51 0.53 0.57 0.56 0.55 0.58 0.59 0.59 0.59 0.59 0.52 0.51 0.52 0.56 0.65 0.73 0.80 0.83 0.84 0.83 0.81 0.79 0.80 0.79 0.79 0.80 0.82 0.83 0.87 0.89 0.89 0.93 0.99 0.99
0.46 0.55 0.59 0.56 0.55 0.57 0.54 0.53 0.55 0.54 0.54 0.56 0.53 0.55 0.58 0.58 0.54 0.54 0.54 0.54 0.56 0.57 0.56 0.57 0.64 0.69 0.73 0.77 0.78 0.78 0.79 0.81 0.80 0.79 0.78 0.80 0.84 0.87 0.87 0.87 0.89 0.92 0.92
0.46 0.50 0.57 0.54 0.52 0.56 0.59 0.58 0.61 0.62 0.60 0.60 0.60 0.63 0.65 0.60 0.58 0.59 0.59 0.60 0.61 0.61 0.60 0.57 0.59 0.63 0.70 0.78 0.83 0.83 0.81 0.84 0.86 0.84 0.84 0.86 0.88 0.89 0.88 0.88 0.89 0.90 0.91
0.53 0.50 0.49 0.51 0.53 0.54 0.57 0.58 0.59 0.60 0.59 0.61 0.64 0.66 0.68 0.62 0.61 0.64 0.63 0.61 0.60 0.61 0.64 0.64 0.64 0.66 0.70 0.75 0.81 0.85 0.86 0.89 0.96 1.00 1.00 0.98 1.00 0.99 0.96 0.95 0.95 0.96 0.96
0.54 0.55 0.54 0.52 0.51 0.55 0.57 0.55 0.58 0.60 0.61 0.63 0.63 0.63 0.61 0.60 0.60 0.60 0.62 0.62 0.62 0.64 0.66 0.69 0.68 0.68 0.70 0.75 0.79 0.84 0.86 0.86 0.95 1.06 1.13 1.11 1.09 1.08 1.07 1.03 1.00 1.03 1.04
0.49 0.54 0.53 0.50 0.51 0.52 0.52 0.54 0.56 0.56 0.56 0.60 0.61 0.61 0.61 0.62 0.62 0.62 0.65 0.65 0.66 0.66 0.67 0.72 0.72 0.69 0.68 0.72 0.77 0.82 0.87 0.92 0.98 1.06 1.14 1.18 1.12 1.07 1.07 1.06 1.02 1.02 1.08
0.44 0.49 0.51 0.52 0.54 0.55 0.56 0.58 0.58 0.57 0.55 0.56 0.57 0.58 0.58 0.59 0.62 0.65 0.68 0.71 0.72 0.71 0.71 0.73 0.75 0.76 0.73 0.72 0.76 0.79 0.92 1.00 1.01 1.02 1.07 1.15 1.13 1.07 1.05 1.05 1.04 1.05 1.08
0.44 0.45 0.48 0.52 0.53 0.53 0.56 0.59 0.61 0.60 0.60 0.59 0.60 0.63 0.63 0.63 0.63 0.63 0.66 0.69 0.72 0.70 0.68 0.69 0.69 0.71 0.73 0.71 0.72 0.82 0.90 0.89 0.94 1.04 1.07 1.13 1.20 1.17 1.13 1.13 1.11 1.12 1.12